Regional Weather Roundup
Issued by NWS

Home | Current Version | Previous Version | Graphics & Text | Print | Product List | Glossary On
Versions: 1 2 3 4 5 6 7 8 9 10 11 12 13 14 15 16 17 18 19 20 21 22 23 24 25 26 27 28 29 30 31 32 33 34 35 36 37 38 39 40 41 42 43 44 45 46 47 48 49 50
940
ASUS43 KFSD 231010
RWRSD

WEATHER ROUNDUP FOR SOUTH DAKOTA
NATIONAL WEATHER SERVICE SIOUX FALLS SD
400 AM CST THU NOV 23 2017

NOTE: "FAIR" INDICATES FEW OR NO CLOUDS BELOW 12,000 FEET WITH NO
SIGNIFICANT WEATHER AND/OR OBSTRUCTIONS TO VISIBILITY.


SDZ001>005-009-010-012>017-231100-
NORTHWEST AND NORTH CENTRAL SOUTH DAKOTA

CITY           SKY/WX    TMP DP  RH WIND       PRES   REMARKS
BUFFALO          N/A     45  38  76 W10       29.88F
FAITH            N/A     42  38  85 SW8       29.95F
MOBRIDGE       CLOUDY    30  27  88 E8        29.91F WCI  22
$$

SDZ012>016-024>037-041>051-057-063-072>074-231100-
SOUTHWEST AND SOUTH CENTRAL SOUTH DAKOTA

CITY           SKY/WX    TMP DP  RH WIND       PRES   REMARKS
RAPID CTY ARPT CLOUDY    45  36  70 W5        30.02F
PIERRE         CLEAR     33  33 100 CALM      29.97F
CUSTER         CLOUDY    47  34  60 W8        30.10F
ELLSWORTH AFB  CLOUDY    46  39  75 SW9       30.01F
PHILIP         CLOUDY    41  37  86 W12       29.99F
PINE RIDGE     CLOUDY    36  34  92 W5        30.08F
SPEARFISH      FAIR      57  37  47 W10G16    30.03F
WINNER         FAIR      41  36  82 SW7       30.01F
$$

SDZ004>011-016>023-039-040-231100-
NORTHEAST SOUTH DAKOTA

CITY           SKY/WX    TMP DP  RH WIND       PRES   REMARKS
ABERDEEN       CLOUDY    18  17  96 SW3       30.00S
WATERTOWN      CLOUDY    24  21  88 W5        29.95S WCI  18
BROOKINGS      CLOUDY    27  23  85 NW3       29.96S
SISSETON         N/A     24  19  81 NW7       29.95S WCI  16
$$

SDZ017-020-022-023-036>040-048>070-231100-
SOUTHEAST SOUTH DAKOTA

CITY           SKY/WX    TMP DP  RH WIND       PRES   REMARKS
SIOUX FALLS    CLOUDY    34  27  75 NW10      29.97R WCI  26
HURON          CLOUDY    22  21  96 NW7       29.99F WCI  13
CHAMBERLAIN    CLEAR     32  32 100 CALM      29.99F
MITCHELL       CLOUDY    31  27  85 NW3       30.01S
YANKTON        CLOUDY    37  31  78 NW5       29.99F
$$

ABBREVIATIONS USED IN REMARKS
   TC - TEMPERATURE IN CELSIUS
  WCI - WIND CHILL INDEX
   HX - HEAT INDEX
  VSB - VISIBILITY





USA.gov is the U.S. government's official web portal to all federal, state and local government web resources and services.